Погода в Урусовской

Россия / Вологодская область     60°42′38″N   42°35′45″E
темп.,
°C
ветер,
м/с
пор.,
м/с
влажн.,
%
обл.,
%
осадки,
мм/ч
давл.,
гПа
погр.,
м
17 апреля, сб
сб1700:00+1св22870 0.0 103312
03:00−1всв11904 0.0 103310
06:00+1ссв22803 0.0 103455
09:00+7ссв23595 0.0 1033522
12:00+10ссв22445 0.0 10321378
15:00+11с23385 0.0 10311658
18:00+10с24435 0.0 1029166
21:00+5с25685 0.0 102985
18 апреля, вс
вс1800:00+3ссв22795 0.0 103034
03:00+2с26885 0.0 1030123
06:00+2св289136 0.0 1031324
09:00+5св457199 0.0 1032940
12:00+5всв355544 0.0 10321186
15:00+7всв45335 0.0 10321507
18:00+6всв35400 0.0 10331433
21:00+1всв28633 0.0 1034176
19 апреля, пн
пн1900:00−1в29720 0.0 1035236
03:00−1в27740 0.0 1036196
06:000в27670 0.0 1037249
09:00+4вюв36405 0.0 10371199
12:00+7вюв453246 0.0 10361575
15:00+7в3533100 0.0 10351636
18:00+6в254498 0.0 1035333
21:00+1в266615 0.0 1035114
20 апреля, вт
вт2000:000юв25730 0.0 103698
03:00−1юв24740 0.0 103669
06:000юв25660 0.0 1035149
09:00+6юв35390 0.0 1035956
12:00+9юв45310 0.0 10331378
15:00+10юв46290 0.0 10311546
18:00+9юв37370 0.0 1030587
21:00+3вюв28610 0.0 1029154
21 апреля, ср
ср2100:00+2юв3126583 0.0 1029274
03:000вюв3127292 0.0 1027299
06:00+1вюв51562100 0.0 1025574
09:00+6вюв61543100 0.0 1022925
12:00+10вюв71636100 0.0 10191290
15:00+8ююв71546100 0.1 10171560
18:00+6юв71563100 0.2 10161154
21:00+4юв61588100 0.3 10151080